Location: Hohenfelde
(53.8441°N, 9.6220°E)
Time: 11:46:39
(UTC+00:00)

SeaSat 1 - Pass Details

Date: 14 July 2020
Orbit: 744 x 748 km, 108.0° (Epoch: 10 August)

Event Time Altitude Azimuth Distance (km) Brightness Sun altitude
Rises 00:34:30 0° 39° (NE) 3,203 7.1 -13.1°
Reaches altitude 10° 00:37:11 10° 53° (NE) 2,275 5.8 -13.0°
Maximum altitude 00:41:12 24° 107° (ESE) 1,508 4.0 -12.9°
Enters shadow 00:45:00 11° 160° (SSE) 2,206 4.4 -12.7°
